Simultaneous Nadir Overpasses (SNOs) Predictions

Prediction of SNOs between GOES-15 and NPP Satellite Orbit:

Table of predicted SNOs for the next 14.0 days since TLE Epoch: 6/18/2016
Index Date Time (GOES-15) GOES-15 Lat,Lon NPP Lat,Lon Distance(km) Time Diff (sec)
1 06/18/2016 22:28:41 0.05,-135.42 -0.09,-136.00 67.38 80
2 06/19/2016 22:12:36 0.04,-135.43 0.94,-131.48 450.81 80
3 06/21/2016 10:31:44 -0.06,-135.47 0.22,-136.75 145.51 80
4 06/22/2016 10:15:38 -0.05,-135.48 -0.75,-132.21 372.23 80
5 06/23/2016 22:34:55 0.07,-135.47 -0.37,-137.53 234.11 80
6 06/24/2016 22:18:50 0.06,-135.48 0.61,-132.99 283.33 80
7 06/26/2016 10:37:57 -0.08,-135.51 0.56,-138.26 314.06 80
8 06/27/2016 10:21:53 -0.07,-135.51 -0.48,-133.73 202.97 80
9 06/28/2016 22:41:09
